Time,TemperatureF,DewpointF,PressureIn,WindDirection,WindDirectionDegrees,WindSpeedMPH,WindSpeedGustMPH,Humidity,HourlyPrecipIn,Conditions,Clouds,dailyrainin,SoftwareType,DateUTC
2013-03-18 00:00:00,46.4,41.5,30.09,ENE,72,0.0,0.0,83,0.00,,,0.00,WeatherDisplay:10.37,2013-03-18 07:00:00,
2013-03-18 00:05:00,46.2,41.3,30.09,ENE,72,0.0,0.0,83,0.00,,,0.00,WeatherDisplay:10.37,2013-03-18 07:05:00,
2013-03-18 00:10:00,46.0,41.1,30.09,ENE,72,0.0,0.0,83,0.00,,,0.00,WeatherDisplay:10.37,2013-03-18 07:10:00,
2013-03-18 00:15:00,45.7,40.8,30.09,ENE,72,0.0,0.0,83,0.00,,,0.00,WeatherDisplay:10.37,2013-03-18 07:15:00,
2013-03-18 00:20:00,45.5,40.9,30.09,ENE,72,0.0,0.0,84,0.00,,,0.00,WeatherDisplay:10.37,2013-03-18 07:20:00,
2013-03-18 00:25:00,45.3,40.7,30.09,ENE,72,0.0,0.0,84,0.00,,,0.00,WeatherDisplay:10.37,2013-03-18 07:25:00,
2013-03-18 00:30:00,45.1,40.9,30.09,ENE,72,0.0,0.0,85,0.00,,,0.00,WeatherDisplay:10.37,2013-03-18 07:30:00,
2013-03-18 00:35:00,45.2,41.3,30.09,ENE,72,0.0,0.0,86,0.00,,,0.00,WeatherDisplay:10.37,2013-03-18 07:35:00,
2013-03-18 00:40:00,45.1,41.2,30.09,ENE,72,0.0,0.0,86,0.00,,,0.00,WeatherDisplay:10.37,2013-03-18 07:40:00,
2013-03-18 00:45:00,44.9,41.0,30.09,ENE,72,0.0,0.0,86,0.00,,,0.00,WeatherDisplay:10.37,2013-03-18 07:45:00,
2013-03-18 00:50:00,44.8,40.9,30.09,ENE,72,0.0,0.0,86,0.00,,,0.00,WeatherDisplay:10.37,2013-03-18 07:50:00,
2013-03-18 00:55:00,44.6,40.7,30.09,ENE,72,0.0,0.0,86,0.00,,,0.00,WeatherDisplay:10.37,2013-03-18 07:55:00,
2013-03-18 01:00:00,44.4,40.5,30.09,ENE,72,0.0,0.0,86,0.00,,,0.00,WeatherDisplay:10.37,2013-03-18 08:00:00,
2013-03-18 01:05:00,44.2,40.3,30.09,ENE,72,0.0,0.0,86,0.00,,,0.00,WeatherDisplay:10.37,2013-03-18 08:05:00,
2013-03-18 01:10:00,44.1,40.2,30.09,ENE,72,0.0,0.0,86,0.00,,,0.00,WeatherDisplay:10.37,2013-03-18 08:10:00,
2013-03-18 01:15:00,44.1,40.5,30.09,ENE,72,0.0,0.0,87,0.00,,,0.00,WeatherDisplay:10.37,2013-03-18 08:15:00,
2013-03-18 01:20:00,44.1,40.5,30.09,ENE,72,0.0,0.0,87,0.00,,,0.00,WeatherDisplay:10.37,2013-03-18 08:20:00,
2013-03-18 01:25:00,43.9,40.3,30.09,ENE,72,0.0,0.0,87,0.00,,,0.00,WeatherDisplay:10.37,2013-03-18 08:25:00,
2013-03-18 01:30:00,43.7,40.1,30.09,ENE,72,0.0,0.0,87,0.00,,,0.00,WeatherDisplay:10.37,2013-03-18 08:30:00,
2013-03-18 01:35:00,43.5,39.9,30.10,ENE,72,0.0,0.0,87,0.00,,,0.00,WeatherDisplay:10.37,2013-03-18 08:35:00,
2013-03-18 01:40:00,43.5,40.2,30.10,ENE,72,0.0,0.0,88,0.00,,,0.00,WeatherDisplay:10.37,2013-03-18 08:40:00,
2013-03-18 01:45:00,43.5,40.2,30.10,ENE,72,0.0,0.0,88,0.00,,,0.00,WeatherDisplay:10.37,2013-03-18 08:45:00,
2013-03-18 01:50:00,43.4,40.1,30.10,ENE,72,0.0,0.0,88,0.00,,,0.00,WeatherDisplay:10.37,2013-03-18 08:50:00,
2013-03-18 01:55:00,43.2,39.9,30.10,ENE,72,0.0,0.0,88,0.00,,,0.00,WeatherDisplay:10.37,2013-03-18 08:55:00,
2013-03-18 02:00:00,43.1,39.8,30.10,ENE,72,0.0,0.0,88,0.00,,,0.00,WeatherDisplay:10.37,2013-03-18 09:00:00,
2013-03-18 02:05:00,43.1,40.1,30.10,ENE,72,0.0,0.0,89,0.00,,,0.00,WeatherDisplay:10.37,2013-03-18 09:05:00,
2013-03-18 02:10:00,43.2,40.5,30.10,ENE,72,0.0,0.0,90,0.00,,,0.00,WeatherDisplay:10.37,2013-03-18 09:10:00,
2013-03-18 02:15:00,43.3,40.6,30.10,ENE,72,0.0,0.0,90,0.00,,,0.00,WeatherDisplay:10.37,2013-03-18 09:15:00,
2013-03-18 02:20:00,43.2,40.5,30.10,ENE,72,0.0,0.0,90,0.00,,,0.00,WeatherDisplay:10.37,2013-03-18 09:20:00,
2013-03-18 02:25:00,43.1,40.1,30.10,ENE,72,0.0,0.0,89,0.00,,,0.00,WeatherDisplay:10.37,2013-03-18 09:25:00,
2013-03-18 02:30:00,43.0,40.0,30.10,ENE,72,0.0,0.0,89,0.00,,,0.00,WeatherDisplay:10.37,2013-03-18 09:30:00,
2013-03-18 02:35:00,42.8,39.8,30.10,ENE,72,0.0,0.0,89,0.00,,,0.00,WeatherDisplay:10.37,2013-03-18 09:35:00,
2013-03-18 02:40:00,42.7,39.7,30.09,ENE,72,0.0,0.0,89,0.00,,,0.00,WeatherDisplay:10.37,2013-03-18 09:40:00,
2013-03-18 02:45:00,42.5,39.5,30.09,ENE,72,0.0,0.0,89,0.00,,,0.00,WeatherDisplay:10.37,2013-03-18 09:45:00,
2013-03-18 02:50:00,42.5,39.5,30.09,ENE,72,0.0,0.0,89,0.00,,,0.00,WeatherDisplay:10.37,2013-03-18 09:50:00,
2013-03-18 02:55:00,42.4,39.7,30.09,ENE,72,0.0,0.0,90,0.00,,,0.00,WeatherDisplay:10.37,2013-03-18 09:55:00,
2013-03-18 03:00:00,42.6,39.9,30.09,ENE,72,0.0,0.0,90,0.00,,,0.00,WeatherDisplay:10.37,2013-03-18 10:00:00,
2013-03-18 03:05:00,42.7,40.0,30.09,ENE,72,0.0,0.0,90,0.00,,,0.00,WeatherDisplay:10.37,2013-03-18 10:05:00,
2013-03-18 03:10:00,42.7,40.0,30.09,ENE,72,0.0,0.0,90,0.00,,,0.00,WeatherDisplay:10.37,2013-03-18 10:10:00,
2013-03-18 03:15:00,42.4,39.7,30.08,ENE,72,0.0,0.0,90,0.00,,,0.00,WeatherDisplay:10.37,2013-03-18 10:15:00,
2013-03-18 03:20:00,42.2,39.5,30.08,ENE,72,0.0,0.0,90,0.00,,,0.00,WeatherDisplay:10.37,2013-03-18 10:20:00,
2013-03-18 03:25:00,42.1,39.4,30.08,ENE,72,0.0,0.0,90,0.00,,,0.00,WeatherDisplay:10.37,2013-03-18 10:25:00,
2013-03-18 03:30:00,42.0,39.3,30.08,ENE,72,0.0,0.0,90,0.00,,,0.00,WeatherDisplay:10.37,2013-03-18 10:30:00,
2013-03-18 03:35:00,41.9,39.2,30.08,ENE,72,0.0,0.0,90,0.00,,,0.00,WeatherDisplay:10.37,2013-03-18 10:35:00,
2013-03-18 03:40:00,41.9,39.5,30.08,ENE,72,0.0,0.0,91,0.00,,,0.00,WeatherDisplay:10.37,2013-03-18 10:40:00,
2013-03-18 03:45:00,41.9,39.2,30.07,ENE,72,0.0,0.0,90,0.00,,,0.00,WeatherDisplay:10.37,2013-03-18 10:45:00,
2013-03-18 03:50:00,41.8,39.1,30.07,ENE,72,0.0,0.0,90,0.00,,,0.00,WeatherDisplay:10.37,2013-03-18 10:50:00,
2013-03-18 03:55:00,41.8,39.4,30.08,ENE,72,0.0,0.0,91,0.00,,,0.00,WeatherDisplay:10.37,2013-03-18 10:55:00,
2013-03-18 04:00:00,41.7,39.3,30.08,ENE,72,0.0,0.0,91,0.00,,,0.00,WeatherDisplay:10.37,2013-03-18 11:00:00,
2013-03-18 04:05:00,41.8,39.4,30.08,ENE,72,0.0,0.0,91,0.00,,,0.00,WeatherDisplay:10.37,2013-03-18 11:05:00,
2013-03-18 04:10:00,41.7,39.3,30.07,ENE,72,0.0,0.0,91,0.00,,,0.00,WeatherDisplay:10.37,2013-03-18 11:10:00,
2013-03-18 04:15:00,41.6,39.2,30.07,ENE,72,0.0,0.0,91,0.00,,,0.00,WeatherDisplay:10.37,2013-03-18 11:15:00,
2013-03-18 04:20:00,41.5,39.1,30.07,ENE,72,0.0,0.0,91,0.00,,,0.00,WeatherDisplay:10.37,2013-03-18 11:20:00,
2013-03-18 04:25:00,41.3,38.9,30.07,ENE,72,0.0,0.0,91,0.00,,,0.00,WeatherDisplay:10.37,2013-03-18 11:25:00,
2013-03-18 04:30:00,41.2,38.8,30.07,ENE,72,0.0,0.0,91,0.00,,,0.00,WeatherDisplay:10.37,2013-03-18 11:30:00,
2013-03-18 04:35:00,41.0,38.6,30.07,ENE,72,0.0,0.0,91,0.00,,,0.00,WeatherDisplay:10.37,2013-03-18 11:35:00,
2013-03-18 04:40:00,40.9,38.5,30.07,ENE,72,0.0,0.0,91,0.00,,,0.00,WeatherDisplay:10.37,2013-03-18 11:40:00,
2013-03-18 04:45:00,40.9,38.5,30.07,ENE,72,0.0,0.0,91,0.00,,,0.00,WeatherDisplay:10.37,2013-03-18 11:45:00,
2013-03-18 04:50:00,40.9,38.5,30.07,ENE,72,0.0,0.0,91,0.00,,,0.00,WeatherDisplay:10.37,2013-03-18 11:50:00,
2013-03-18 04:55:00,40.8,38.4,30.07,ENE,72,0.0,0.0,91,0.00,,,0.00,WeatherDisplay:10.37,2013-03-18 11:55:00,
2013-03-18 05:00:00,40.8,38.4,30.07,ENE,72,0.0,0.0,91,0.00,,,0.00,WeatherDisplay:10.37,2013-03-18 12:00:00,
2013-03-18 05:05:00,40.8,38.7,30.06,ENE,72,0.0,0.0,92,0.00,,,0.00,WeatherDisplay:10.37,2013-03-18 12:05:00,
2013-03-18 05:10:00,40.8,38.7,30.07,ENE,72,0.0,0.0,92,0.00,,,0.00,WeatherDisplay:10.37,2013-03-18 12:10:00,
2013-03-18 05:15:00,40.8,38.7,30.07,ENE,72,0.0,0.0,92,0.00,,,0.00,WeatherDisplay:10.37,2013-03-18 12:15:00,
2013-03-18 05:20:00,40.7,38.6,30.07,ENE,72,0.0,0.0,92,0.00,,,0.00,WeatherDisplay:10.37,2013-03-18 12:20:00,
2013-03-18 05:25:00,41.0,38.9,30.07,ENE,72,0.0,0.0,92,0.00,,,0.00,WeatherDisplay:10.37,2013-03-18 12:25:00,
2013-03-18 05:30:00,41.3,39.2,30.07,ENE,72,0.0,0.0,92,0.00,,,0.00,WeatherDisplay:10.37,2013-03-18 12:30:00,
2013-03-18 05:35:00,41.3,39.2,30.08,ENE,72,0.0,0.0,92,0.00,,,0.00,WeatherDisplay:10.37,2013-03-18 12:35:00,
2013-03-18 05:40:00,41.2,39.1,30.08,ENE,72,0.0,0.0,92,0.00,,,0.00,WeatherDisplay:10.37,2013-03-18 12:40:00,
2013-03-18 05:45:00,40.9,38.8,30.08,ENE,72,0.0,0.0,92,0.00,,,0.00,WeatherDisplay:10.37,2013-03-18 12:45:00,
2013-03-18 05:50:00,40.8,38.7,30.08,ENE,72,0.0,0.0,92,0.00,,,0.00,WeatherDisplay:10.37,2013-03-18 12:50:00,
2013-03-18 05:55:00,41.1,39.0,30.08,ENE,72,0.0,0.0,92,0.00,,,0.00,WeatherDisplay:10.37,2013-03-18 12:55:00,
2013-03-18 06:00:00,41.1,39.0,30.08,ENE,72,0.0,0.0,92,0.00,,,0.00,WeatherDisplay:10.37,2013-03-18 13:00:00,
2013-03-18 06:05:00,41.0,38.9,30.07,ENE,72,0.0,0.0,92,0.00,,,0.00,WeatherDisplay:10.37,2013-03-18 13:05:00,
2013-03-18 06:10:00,40.9,38.8,30.07,ENE,72,0.0,0.0,92,0.00,,,0.00,WeatherDisplay:10.37,2013-03-18 13:10:00,
2013-03-18 06:15:00,40.9,38.8,30.08,ENE,72,0.0,0.0,92,0.00,,,0.00,WeatherDisplay:10.37,2013-03-18 13:15:00,
2013-03-18 06:20:00,40.9,38.8,30.08,ENE,72,0.0,0.0,92,0.00,,,0.00,WeatherDisplay:10.37,2013-03-18 13:20:00,
2013-03-18 06:26:00,40.9,38.8,30.09,ENE,72,0.0,0.0,92,0.00,,,0.00,WeatherDisplay:10.37,2013-03-18 13:26:00,
2013-03-18 06:31:00,40.8,38.7,30.09,ENE,72,0.0,0.0,92,0.00,CLR,,0.00,WeatherDisplay:10.37,2013-03-18 13:31:00,
2013-03-18 06:36:00,40.7,38.6,30.09,ENE,72,0.0,0.0,92,0.00,,,0.00,WeatherDisplay:10.37,2013-03-18 13:36:00,
2013-03-18 06:41:00,40.8,38.7,30.09,ENE,72,0.0,0.0,92,0.00,,,0.00,WeatherDisplay:10.37,2013-03-18 13:41:00,
2013-03-18 06:46:00,40.9,38.8,30.09,ENE,72,0.0,0.0,92,0.00,,,0.00,WeatherDisplay:10.37,2013-03-18 13:46:00,
2013-03-18 06:51:00,40.8,38.7,30.09,ENE,72,0.0,0.0,92,0.00,,,0.00,WeatherDisplay:10.37,2013-03-18 13:51:00,
2013-03-18 06:56:00,40.8,38.7,30.09,ENE,72,0.0,0.0,92,0.00,,,0.00,WeatherDisplay:10.37,2013-03-18 13:56:00,
2013-03-18 07:01:00,40.7,38.8,30.09,ENE,72,0.0,0.0,93,0.00,CLR,,0.00,WeatherDisplay:10.37,2013-03-18 14:01:00,
2013-03-18 07:06:00,40.6,38.5,30.09,ENE,72,0.0,0.0,92,0.00,CLR,,0.00,WeatherDisplay:10.37,2013-03-18 14:06:00,
2013-03-18 07:11:00,40.4,38.3,30.09,ENE,72,0.0,0.0,92,0.00,CLR,,0.00,WeatherDisplay:10.37,2013-03-18 14:11:00,
2013-03-18 07:16:00,40.3,38.2,30.09,ENE,72,0.0,0.0,92,0.00,CLR,,0.00,WeatherDisplay:10.37,2013-03-18 14:16:00,
2013-03-18 07:21:00,40.1,38.0,30.09,ENE,72,0.0,0.0,92,0.00,CLR,,0.00,WeatherDisplay:10.37,2013-03-18 14:21:00,
2013-03-18 07:26:00,40.1,38.0,30.10,ENE,72,0.0,0.0,92,0.00,CLR,,0.00,WeatherDisplay:10.37,2013-03-18 14:26:00,
2013-03-18 07:31:00,40.1,38.2,30.10,ENE,72,0.0,0.0,93,0.00,CLR,,0.00,WeatherDisplay:10.37,2013-03-18 14:31:00,
2013-03-18 07:36:00,40.1,38.2,30.10,ENE,72,0.0,0.0,93,0.00,CLR,,0.00,WeatherDisplay:10.37,2013-03-18 14:36:00,
2013-03-18 07:41:00,40.1,38.0,30.11,ENE,72,0.0,0.0,92,0.00,CLR,,0.00,WeatherDisplay:10.37,2013-03-18 14:41:00,
2013-03-18 07:46:00,40.1,38.0,30.11,ENE,72,0.0,0.0,92,0.00,CLR,,0.00,WeatherDisplay:10.37,2013-03-18 14:46:00,
2013-03-18 07:51:00,40.1,38.2,30.11,ENE,72,0.0,0.0,93,0.00,CLR,,0.00,WeatherDisplay:10.37,2013-03-18 14:51:00,
2013-03-18 07:56:00,40.2,38.3,30.11,ENE,72,0.0,0.0,93,0.00,CLR,,0.00,WeatherDisplay:10.37,2013-03-18 14:56:00,
2013-03-18 08:01:00,40.3,38.4,30.11,ENE,72,0.0,0.0,93,0.00,CLR,,0.00,WeatherDisplay:10.37,2013-03-18 15:01:00,
2013-03-18 08:06:00,40.4,38.5,30.12,ENE,72,0.0,0.0,93,0.00,CLR,,0.00,WeatherDisplay:10.37,2013-03-18 15:06:00,
2013-03-18 08:11:00,40.6,38.7,30.12,ENE,72,0.0,0.0,93,0.00,CLR,,0.00,WeatherDisplay:10.37,2013-03-18 15:11:00,
2013-03-18 08:16:00,41.0,39.1,30.12,ENE,72,0.0,0.0,93,0.00,CLR,,0.00,WeatherDisplay:10.37,2013-03-18 15:16:00,
2013-03-18 08:21:00,41.4,39.5,30.13,ENE,72,0.0,0.0,93,0.00,CLR,,0.00,WeatherDisplay:10.37,2013-03-18 15:21:00,
2013-03-18 08:26:00,41.9,40.0,30.12,ENE,72,0.0,0.0,93,0.00,CLR,,0.00,WeatherDisplay:10.37,2013-03-18 15:26:00,
2013-03-18 08:31:00,42.3,40.4,30.12,ENE,72,0.0,0.0,93,0.00,CLR,,0.00,WeatherDisplay:10.37,2013-03-18 15:31:00,
2013-03-18 08:36:00,42.9,41.0,30.12,ENE,72,0.0,0.0,93,0.00,CLR,,0.00,WeatherDisplay:10.37,2013-03-18 15:36:00,
2013-03-18 08:42:00,43.5,41.6,30.12,ENE,72,0.0,0.0,93,0.00,CLR,,0.00,WeatherDisplay:10.37,2013-03-18 15:42:00,
2013-03-18 08:47:00,44.1,42.2,30.12,ENE,72,0.0,0.0,93,0.00,CLR,,0.00,WeatherDisplay:10.37,2013-03-18 15:47:00,
2013-03-18 08:52:00,44.8,42.9,30.12,ENE,72,0.0,0.0,93,0.00,CLR,,0.00,WeatherDisplay:10.37,2013-03-18 15:52:00,
2013-03-18 08:57:00,45.7,43.8,30.12,ENE,72,0.0,0.0,93,0.00,CLR,,0.00,WeatherDisplay:10.37,2013-03-18 15:57:00,
2013-03-18 09:02:00,46.5,44.6,30.13,ENE,72,0.0,0.0,93,0.00,CLR,,0.00,WeatherDisplay:10.37,2013-03-18 16:02:00,
2013-03-18 09:07:00,47.1,45.2,30.13,ENE,72,0.0,0.0,93,0.00,CLR,,0.00,WeatherDisplay:10.37,2013-03-18 16:07:00,
2013-03-18 09:12:00,47.9,46.0,30.13,East,84,0.0,0.0,93,0.00,CLR,,0.00,WeatherDisplay:10.37,2013-03-18 16:12:00,
2013-03-18 09:17:00,48.6,46.7,30.12,SW,218,0.0,0.0,93,0.00,CLR,,0.00,WeatherDisplay:10.37,2013-03-18 16:17:00,
2013-03-18 09:22:00,49.5,47.6,30.12,SW,217,0.0,0.0,93,0.00,CLR,,0.00,WeatherDisplay:10.37,2013-03-18 16:22:00,
2013-03-18 09:27:00,50.3,48.4,30.12,SW,226,0.0,0.0,93,0.00,CLR,,0.00,WeatherDisplay:10.37,2013-03-18 16:27:00,
2013-03-18 09:32:00,50.9,48.9,30.13,NE,36,2.3,2.3,93,0.00,CLR,,0.00,WeatherDisplay:10.37,2013-03-18 16:32:00,
2013-03-18 09:37:00,51.9,49.9,30.13,NNE,33,1.0,0.0,93,0.00,CLR,,0.00,WeatherDisplay:10.37,2013-03-18 16:37:00,
2013-03-18 09:42:00,52.7,50.1,30.13,NNE,12,2.3,2.3,91,0.00,CLR,,0.00,WeatherDisplay:10.37,2013-03-18 16:42:00,
2013-03-18 09:47:00,53.3,50.1,30.13,NW,322,1.2,1.2,89,0.00,CLR,,0.00,WeatherDisplay:10.37,2013-03-18 16:47:00,
2013-03-18 09:52:00,53.5,49.1,30.13,NNE,20,2.3,2.3,85,0.00,CLR,,0.00,WeatherDisplay:10.37,2013-03-18 16:52:00,
2013-03-18 09:57:00,53.8,48.8,30.13,NW,319,1.2,0.0,83,0.00,CLR,,0.00,WeatherDisplay:10.37,2013-03-18 16:57:00,
2013-03-18 10:02:00,54.3,49.2,30.13,NW,320,0.0,0.0,83,0.00,CLR,,0.00,WeatherDisplay:10.37,2013-03-18 17:02:00,
2013-03-18 10:07:00,54.9,48.8,30.12,NW,314,0.0,0.1,80,0.00,CLR,,0.00,WeatherDisplay:10.37,2013-03-18 17:07:00,
2013-03-18 10:12:00,55.3,49.2,30.12,NW,315,0.0,0.0,80,0.00,CLR,,0.00,WeatherDisplay:10.37,2013-03-18 17:12:00,
2013-03-18 10:17:00,55.8,49.4,30.12,NW,315,0.0,0.0,79,0.00,CLR,,0.00,WeatherDisplay:10.37,2013-03-18 17:17:00,
2013-03-18 10:22:00,56.1,49.0,30.12,North,359,0.0,0.0,77,0.00,CLR,,0.00,WeatherDisplay:10.37,2013-03-18 17:22:00,
2013-03-18 10:27:00,56.4,49.3,30.12,NNE,29,1.2,1.2,77,0.00,CLR,,0.00,WeatherDisplay:10.37,2013-03-18 17:27:00,
2013-03-18 10:32:00,56.4,49.3,30.12,WSW,256,1.2,0.0,77,0.00,CLR,,0.00,WeatherDisplay:10.37,2013-03-18 17:32:00,
2013-03-18 10:37:00,56.7,49.2,30.12,NE,50,1.2,1.2,76,0.00,CLR,,0.00,WeatherDisplay:10.37,2013-03-18 17:37:00,
2013-03-18 10:42:00,57.1,49.2,30.12,North,1,2.3,2.3,75,0.00,CLR,,0.00,WeatherDisplay:10.37,2013-03-18 17:42:00,
2013-03-18 10:47:00,57.5,49.3,30.12,North,11,3.5,3.5,74,0.00,CLR,,0.00,WeatherDisplay:10.37,2013-03-18 17:47:00,
2013-03-18 10:52:00,57.7,49.5,30.12,West,261,0.0,0.0,74,0.00,CLR,,0.00,WeatherDisplay:10.37,2013-03-18 17:52:00,
2013-03-18 10:57:00,58.0,49.0,30.12,NNE,19,3.5,3.5,72,0.00,CLR,,0.00,WeatherDisplay:10.37,2013-03-18 17:57:00,
2013-03-18 11:02:00,57.7,49.1,30.12,NE,40,2.3,2.3,73,0.00,CLR,,0.00,WeatherDisplay:10.37,2013-03-18 18:02:00,
2013-03-18 11:07:00,57.8,49.2,30.12,East,79,3.5,3.5,73,0.00,CLR,,0.00,WeatherDisplay:10.37,2013-03-18 18:07:00,
2013-03-18 11:12:00,58.2,50.0,30.12,NNE,26,2.3,2.3,74,0.00,CLR,,0.00,WeatherDisplay:10.37,2013-03-18 18:12:00,
2013-03-18 11:17:00,58.3,49.3,30.11,East,79,1.2,1.2,72,0.00,CLR,,0.00,WeatherDisplay:10.37,2013-03-18 18:17:00,
2013-03-18 11:22:00,58.8,49.8,30.11,North,11,3.5,3.5,72,0.00,CLR,,0.00,WeatherDisplay:10.37,2013-03-18 18:22:00,
2013-03-18 11:27:00,59.1,49.7,30.11,NNW,334,2.3,2.3,71,0.00,CLR,,0.00,WeatherDisplay:10.37,2013-03-18 18:27:00,
2013-03-18 11:32:00,59.4,49.6,30.11,West,281,2.0,2.0,70,0.00,CLR,,0.00,WeatherDisplay:10.37,2013-03-18 18:32:00,
2013-03-18 11:37:00,59.9,49.7,30.11,NE,42,3.0,3.0,69,0.00,CLR,,0.00,WeatherDisplay:10.37,2013-03-18 18:37:00,
2013-03-18 11:42:00,60.0,49.8,30.11,NE,42,2.3,2.3,69,0.00,CLR,,0.00,WeatherDisplay:10.37,2013-03-18 18:42:00,
2013-03-18 11:47:00,60.1,49.9,30.11,ENE,60,1.2,1.2,69,0.00,CLR,,0.00,WeatherDisplay:10.37,2013-03-18 18:47:00,
2013-03-18 11:52:00,60.3,49.7,30.11,North,4,3.5,3.5,68,0.00,CLR,,0.00,WeatherDisplay:10.37,2013-03-18 18:52:00,
2013-03-18 11:57:00,60.1,49.9,30.11,NE,42,3.5,3.5,69,0.00,CLR,,0.00,WeatherDisplay:10.37,2013-03-18 18:57:00,
2013-03-18 12:02:00,60.5,50.3,30.11,NE,44,4.0,4.0,69,0.00,CLR,,0.00,WeatherDisplay:10.37,2013-03-18 19:02:00,
2013-03-18 12:07:00,60.8,50.6,30.11,ENE,58,2.3,2.3,69,0.00,CLR,,0.00,WeatherDisplay:10.37,2013-03-18 19:07:00,
2013-03-18 12:12:00,61.4,51.1,30.11,NW,304,3.5,3.5,69,0.00,CLR,,0.00,WeatherDisplay:10.37,2013-03-18 19:12:00,
2013-03-18 12:17:00,62.1,50.6,30.11,NNE,30,2.3,2.3,66,0.00,CLR,,0.00,WeatherDisplay:10.37,2013-03-18 19:17:00,
2013-03-18 12:22:00,61.8,51.1,30.10,North,11,3.5,3.5,68,0.00,CLR,,0.00,WeatherDisplay:10.37,2013-03-18 19:22:00,
2013-03-18 12:27:00,62.1,51.0,30.10,NE,36,3.5,3.5,67,0.00,CLR,,0.00,WeatherDisplay:10.37,2013-03-18 19:27:00,
2013-03-18 12:32:00,62.2,48.6,30.10,North,360,3.5,3.5,61,0.00,CLR,,0.00,WeatherDisplay:10.37,2013-03-18 19:32:00,
2013-03-18 12:37:00,62.2,49.0,30.10,NE,45,3.5,3.5,62,0.00,CLR,,0.00,WeatherDisplay:10.37,2013-03-18 19:37:00,
2013-03-18 12:42:00,62.6,49.8,30.09,ENE,70,3.5,3.5,63,0.00,CLR,,0.00,WeatherDisplay:10.37,2013-03-18 19:42:00,
2013-03-18 12:47:00,62.8,49.6,30.09,NE,36,2.3,2.3,62,0.00,CLR,,0.00,WeatherDisplay:10.37,2013-03-18 19:47:00,
2013-03-18 12:52:00,62.8,50.4,30.09,NE,36,3.5,3.5,64,0.00,CLR,,0.00,WeatherDisplay:10.37,2013-03-18 19:52:00,
2013-03-18 12:57:00,63.0,51.5,30.09,NE,48,2.3,2.3,66,0.00,CLR,,0.00,WeatherDisplay:10.37,2013-03-18 19:57:00,
2013-03-18 13:02:00,63.5,51.1,30.09,NE,46,2.3,2.3,64,0.00,CLR,,0.00,WeatherDisplay:10.37,2013-03-18 20:02:00,
2013-03-18 13:07:00,63.6,51.2,30.09,NE,37,3.5,3.5,64,0.00,CLR,,0.00,WeatherDisplay:10.37,2013-03-18 20:07:00,
2013-03-18 13:12:00,63.7,51.3,30.09,ENE,68,3.5,3.5,64,0.00,CLR,,0.00,WeatherDisplay:10.37,2013-03-18 20:12:00,
2013-03-18 13:17:00,63.5,51.5,30.08,NNE,16,2.0,2.0,65,0.00,CLR,,0.00,WeatherDisplay:10.37,2013-03-18 20:17:00,
2013-03-18 13:22:00,63.9,51.5,30.08,NNE,31,3.5,3.5,64,0.00,CLR,,0.00,WeatherDisplay:10.37,2013-03-18 20:22:00,
2013-03-18 13:27:00,64.0,51.1,30.07,NNE,15,3.5,3.5,63,0.00,CLR,,0.00,WeatherDisplay:10.37,2013-03-18 20:27:00,
2013-03-18 13:32:00,63.7,50.4,30.07,East,89,3.5,3.5,62,0.00,CLR,,0.00,WeatherDisplay:10.37,2013-03-18 20:32:00,
2013-03-18 13:37:00,63.7,50.9,30.07,NE,42,3.5,3.5,63,0.00,CLR,,0.00,WeatherDisplay:10.37,2013-03-18 20:37:00,
2013-03-18 13:42:00,63.9,51.9,30.06,ENE,61,3.5,3.5,65,0.00,CLR,,0.00,WeatherDisplay:10.37,2013-03-18 20:42:00,
2013-03-18 13:47:00,63.8,51.4,30.06,NNE,19,3.0,3.0,64,0.00,CLR,,0.00,WeatherDisplay:10.37,2013-03-18 20:47:00,
2013-03-18 13:52:00,63.2,51.2,30.06,North,6,3.5,3.5,65,0.00,CLR,,0.00,WeatherDisplay:10.37,2013-03-18 20:52:00,
2013-03-18 13:57:00,63.1,51.1,30.06,NE,39,3.5,3.5,65,0.00,CLR,,0.00,WeatherDisplay:10.37,2013-03-18 20:57:00,
2013-03-18 14:02:00,62.9,51.0,30.05,NE,36,4.6,4.6,65,0.00,CLR,,0.00,WeatherDisplay:10.37,2013-03-18 21:02:00,
2013-03-18 14:07:00,62.7,50.8,30.05,NNE,22,5.0,5.0,65,0.00,CLR,,0.00,WeatherDisplay:10.37,2013-03-18 21:07:00,
2013-03-18 14:12:00,62.6,51.1,30.05,NNE,33,2.3,2.3,66,0.00,CLR,,0.00,WeatherDisplay:10.37,2013-03-18 21:12:00,
2013-03-18 14:17:00,62.8,49.6,30.05,NE,53,3.5,3.5,62,0.00,CLR,,0.00,WeatherDisplay:10.37,2013-03-18 21:17:00,
2013-03-18 14:22:00,63.0,50.2,30.05,ENE,73,1.2,1.2,63,0.00,CLR,,0.00,WeatherDisplay:10.37,2013-03-18 21:22:00,
2013-03-18 14:27:00,63.0,48.9,30.05,NNE,13,3.5,3.5,60,0.00,CLR,,0.00,WeatherDisplay:10.37,2013-03-18 21:27:00,
2013-03-18 14:32:00,63.0,48.4,30.04,NE,49,2.3,2.3,59,0.00,CLR,,0.00,WeatherDisplay:10.37,2013-03-18 21:32:00,
2013-03-18 14:37:00,63.2,49.5,30.04,ESE,115,2.3,2.3,61,0.00,CLR,,0.00,WeatherDisplay:10.37,2013-03-18 21:37:00,
2013-03-18 14:42:00,63.4,50.1,30.05,NW,325,1.2,1.2,62,0.00,CLR,,0.00,WeatherDisplay:10.37,2013-03-18 21:42:00,
2013-03-18 14:48:00,63.6,48.5,30.05,NNE,14,3.5,3.5,58,0.00,CLR,,0.00,WeatherDisplay:10.37,2013-03-18 21:48:00,
2013-03-18 14:53:00,63.4,47.4,30.05,NNE,29,3.5,3.5,56,0.00,CLR,,0.00,WeatherDisplay:10.37,2013-03-18 21:53:00,
2013-03-18 14:58:00,63.2,48.2,30.05,North,355,0.0,0.0,58,0.00,CLR,,0.00,WeatherDisplay:10.37,2013-03-18 21:58:00,
2013-03-18 15:03:00,63.3,47.8,30.05,NW,309,1.2,1.2,57,0.00,CLR,,0.00,WeatherDisplay:10.37,2013-03-18 22:03:00,
2013-03-18 15:08:00,63.9,48.4,30.05,NW,322,1.2,1.2,57,0.00,CLR,,0.00,WeatherDisplay:10.37,2013-03-18 22:08:00,
2013-03-18 15:13:00,64.3,48.3,30.05,NW,322,3.5,3.5,56,0.00,CLR,,0.00,WeatherDisplay:10.37,2013-03-18 22:13:00,
2013-03-18 15:18:00,64.6,48.5,30.04,NNW,327,1.2,1.2,56,0.00,CLR,,0.00,WeatherDisplay:10.37,2013-03-18 22:18:00,
2013-03-18 15:23:00,64.8,48.2,30.05,ENE,70,3.5,3.5,55,0.00,CLR,,0.00,WeatherDisplay:10.37,2013-03-18 22:23:00,
2013-03-18 15:28:00,64.8,48.7,30.05,NE,40,1.2,1.2,56,0.00,CLR,,0.00,WeatherDisplay:10.37,2013-03-18 22:28:00,
2013-03-18 15:33:00,65.1,48.5,30.05,WNW,295,1.2,0.0,55,0.00,CLR,,0.00,WeatherDisplay:10.37,2013-03-18 22:33:00,
2013-03-18 15:38:00,65.4,49.3,30.04,NE,45,2.0,2.0,56,0.00,CLR,,0.00,WeatherDisplay:10.37,2013-03-18 22:38:00,
2013-03-18 15:43:00,65.1,49.0,30.03,NE,47,2.3,2.3,56,0.00,CLR,,0.00,WeatherDisplay:10.37,2013-03-18 22:43:00,
2013-03-18 15:48:00,65.1,50.0,30.03,NNE,25,2.3,2.3,58,0.00,CLR,,0.00,WeatherDisplay:10.37,2013-03-18 22:48:00,
2013-03-18 15:53:00,65.3,50.1,30.04,NE,44,1.2,1.2,58,0.00,CLR,,0.00,WeatherDisplay:10.37,2013-03-18 22:53:00,
2013-03-18 15:58:00,65.5,50.3,30.03,NNE,29,4.0,4.0,58,0.00,CLR,,0.00,WeatherDisplay:10.37,2013-03-18 22:58:00,
2013-03-18 16:03:00,65.5,50.3,30.04,ENE,74,2.3,2.3,58,0.00,CLR,,0.00,WeatherDisplay:10.37,2013-03-18 23:03:00,
2013-03-18 16:08:00,65.5,50.3,30.04,ENE,72,2.3,2.3,58,0.00,CLR,,0.00,WeatherDisplay:10.37,2013-03-18 23:08:00,
2013-03-18 16:13:00,65.3,51.1,30.03,NE,37,3.5,3.5,60,0.00,CLR,,0.00,WeatherDisplay:10.37,2013-03-18 23:13:00,
2013-03-18 16:18:00,65.3,50.6,30.03,East,79,2.3,2.3,59,0.00,CLR,,0.00,WeatherDisplay:10.37,2013-03-18 23:18:00,
2013-03-18 16:23:00,65.2,50.0,30.03,ENE,65,3.5,3.5,58,0.00,CLR,,0.00,WeatherDisplay:10.37,2013-03-18 23:23:00,
2013-03-18 16:28:00,64.9,49.3,30.03,NE,51,3.5,3.5,57,0.00,CLR,,0.00,WeatherDisplay:10.37,2013-03-18 23:28:00,
2013-03-18 16:33:00,64.4,48.8,30.03,NE,37,1.2,1.2,57,0.00,CLR,,0.00,WeatherDisplay:10.37,2013-03-18 23:33:00,
2013-03-18 16:38:00,64.3,48.7,30.04,NE,51,3.5,3.5,57,0.00,CLR,,0.00,WeatherDisplay:10.37,2013-03-18 23:38:00,
2013-03-18 16:43:00,64.0,47.5,30.03,NNE,22,2.3,2.3,55,0.00,CLR,,0.00,WeatherDisplay:10.37,2013-03-18 23:43:00,
2013-03-18 16:48:00,63.7,47.7,30.03,ENE,58,2.3,2.3,56,0.00,CLR,,0.00,WeatherDisplay:10.37,2013-03-18 23:48:00,
2013-03-18 16:53:00,63.7,48.6,30.03,ESE,108,2.3,2.3,58,0.00,CLR,,0.00,WeatherDisplay:10.37,2013-03-18 23:53:00,
2013-03-18 16:58:00,63.7,47.7,30.03,NNE,15,3.5,3.5,56,0.00,CLR,,0.00,WeatherDisplay:10.37,2013-03-18 23:58:00,
2013-03-18 17:03:00,63.7,48.6,30.03,NNE,30,2.3,2.3,58,0.00,CLR,,0.00,WeatherDisplay:10.37,2013-03-19 00:03:00,
2013-03-18 17:08:00,63.6,48.5,30.03,NNE,13,2.3,2.3,58,0.00,CLR,,0.00,WeatherDisplay:10.37,2013-03-19 00:08:00,
2013-03-18 17:13:00,63.3,48.3,30.03,NE,41,3.5,3.5,58,0.00,CLR,,0.00,WeatherDisplay:10.37,2013-03-19 00:13:00,
2013-03-18 17:18:00,63.2,48.6,30.03,NNE,33,2.3,2.3,59,0.00,CLR,,0.00,WeatherDisplay:10.37,2013-03-19 00:18:00,
2013-03-18 17:23:00,63.0,48.4,30.03,NE,49,2.3,2.3,59,0.00,CLR,,0.00,WeatherDisplay:10.37,2013-03-19 00:23:00,
2013-03-18 17:28:00,63.2,48.6,30.03,North,351,0.0,0.0,59,0.00,CLR,,0.00,WeatherDisplay:10.37,2013-03-19 00:28:00,
2013-03-18 17:33:00,63.3,48.7,30.03,NE,55,2.3,0.0,59,0.00,CLR,,0.00,WeatherDisplay:10.37,2013-03-19 00:33:00,
2013-03-18 17:38:00,63.6,48.5,30.03,WNW,296,1.2,1.2,58,0.00,CLR,,0.00,WeatherDisplay:10.37,2013-03-19 00:38:00,
2013-03-18 17:43:00,63.9,49.3,30.03,WNW,290,2.3,0.0,59,0.00,CLR,,0.00,WeatherDisplay:10.37,2013-03-19 00:43:00,
2013-03-18 17:48:00,64.2,49.6,30.02,WNW,297,1.2,1.2,59,0.00,CLR,,0.00,WeatherDisplay:10.37,2013-03-19 00:48:00,
2013-03-18 17:53:00,64.2,49.6,30.02,WNW,300,0.0,0.0,59,0.00,CLR,,0.00,WeatherDisplay:10.37,2013-03-19 00:53:00,
2013-03-18 17:58:00,64.2,49.6,30.03,WNW,295,1.2,1.2,59,0.00,CLR,,0.00,WeatherDisplay:10.37,2013-03-19 00:58:00,
2013-03-18 18:03:00,64.2,49.6,30.02,WNW,297,1.2,0.0,59,0.00,CLR,,0.00,WeatherDisplay:10.37,2013-03-19 01:03:00,
2013-03-18 18:08:00,64.1,49.9,30.03,WNW,285,1.2,1.2,60,0.00,CLR,,0.00,WeatherDisplay:10.37,2013-03-19 01:08:00,
2013-03-18 18:13:00,63.8,49.6,30.03,WNW,284,1.2,1.2,60,0.00,CLR,,0.00,WeatherDisplay:10.37,2013-03-19 01:13:00,
2013-03-18 18:18:00,63.5,49.8,30.03,WNW,287,2.3,2.3,61,0.00,CLR,,0.00,WeatherDisplay:10.37,2013-03-19 01:18:00,
2013-03-18 18:23:00,63.2,49.1,30.03,NW,308,1.2,1.2,60,0.00,CLR,,0.00,WeatherDisplay:10.37,2013-03-19 01:23:00,
2013-03-18 18:28:00,62.8,49.6,30.03,WNW,288,0.0,0.0,62,0.00,CLR,,0.00,WeatherDisplay:10.37,2013-03-19 01:28:00,
2013-03-18 18:33:00,62.6,49.8,30.03,WNW,293,0.0,0.0,63,0.00,CLR,,0.00,WeatherDisplay:10.37,2013-03-19 01:33:00,
2013-03-18 18:38:00,62.4,49.6,30.04,WNW,285,0.0,0.0,63,0.00,CLR,,0.00,WeatherDisplay:10.37,2013-03-19 01:38:00,
2013-03-18 18:43:00,62.1,49.8,30.04,West,276,2.3,2.3,64,0.00,CLR,,0.00,WeatherDisplay:10.37,2013-03-19 01:43:00,
2013-03-18 18:48:00,61.7,49.4,30.04,WNW,288,0.0,0.1,64,0.00,CLR,,0.00,WeatherDisplay:10.37,2013-03-19 01:48:00,
2013-03-18 18:53:00,61.4,48.7,30.05,WNW,288,1.2,1.2,63,0.00,CLR,,0.00,WeatherDisplay:10.37,2013-03-19 01:53:00,
2013-03-18 18:58:00,61.1,47.5,30.05,WNW,285,0.0,0.0,61,0.00,CLR,,0.00,WeatherDisplay:10.37,2013-03-19 01:58:00,
2013-03-18 19:03:00,60.9,47.8,30.06,WNW,295,2.3,2.3,62,0.00,CLR,,0.00,WeatherDisplay:10.37,2013-03-19 02:03:00,
2013-03-18 19:08:00,60.7,48.9,30.06,NW,305,3.5,3.5,65,0.00,CLR,,0.00,WeatherDisplay:10.37,2013-03-19 02:08:00,
2013-03-18 19:13:00,60.4,49.4,30.06,NW,304,1.2,1.2,67,0.00,CLR,,0.00,WeatherDisplay:10.37,2013-03-19 02:13:00,
2013-03-18 19:18:00,60.0,49.0,30.06,NW,305,0.0,0.0,67,0.00,CLR,,0.00,WeatherDisplay:10.37,2013-03-19 02:18:00,
2013-03-18 19:23:00,59.7,48.7,30.06,NW,305,0.0,0.0,67,0.00,CLR,,0.00,WeatherDisplay:10.37,2013-03-19 02:23:00,
2013-03-18 19:28:00,59.3,48.7,30.06,NW,305,0.0,0.0,68,0.00,CLR,,0.00,WeatherDisplay:10.37,2013-03-19 02:28:00,
2013-03-18 19:33:00,58.9,48.7,30.06,NW,304,0.0,0.0,69,0.00,CLR,,0.00,WeatherDisplay:10.37,2013-03-19 02:33:00,
2013-03-18 19:38:00,58.6,48.8,30.07,NW,305,0.0,0.0,70,0.00,CLR,,0.00,WeatherDisplay:10.37,2013-03-19 02:38:00,
2013-03-18 19:43:00,58.2,48.5,30.07,NW,305,0.0,0.0,70,0.00,CLR,,0.00,WeatherDisplay:10.37,2013-03-19 02:43:00,
2013-03-18 19:48:00,58.0,48.3,30.08,NW,304,0.0,0.0,70,0.00,CLR,,0.00,WeatherDisplay:10.37,2013-03-19 02:48:00,
2013-03-18 19:53:00,57.8,49.2,30.08,WNW,302,1.2,0.0,73,0.00,,,0.00,WeatherDisplay:10.37,2013-03-19 02:53:00,
2013-03-18 19:58:00,57.8,49.6,30.08,WSW,242,0.0,0.1,74,0.00,CLR,,0.00,WeatherDisplay:10.37,2013-03-19 02:58:00,
2013-03-18 20:03:00,57.7,49.1,30.09,SW,228,2.0,2.0,73,0.00,CLR,,0.00,WeatherDisplay:10.37,2013-03-19 03:03:00,
2013-03-18 20:08:00,57.4,48.1,30.09,SSW,193,3.5,3.5,71,0.00,CLR,,0.00,WeatherDisplay:10.37,2013-03-19 03:08:00,
2013-03-18 20:13:00,56.7,47.4,30.09,WSW,237,3.5,3.5,71,0.00,CLR,,0.00,WeatherDisplay:10.37,2013-03-19 03:13:00,
2013-03-18 20:18:00,56.0,46.7,30.09,West,266,3.5,3.5,71,0.00,CLR,,0.00,WeatherDisplay:10.37,2013-03-19 03:18:00,
2013-03-18 20:23:00,55.5,46.2,30.10,SW,225,3.5,3.5,71,0.00,CLR,,0.00,WeatherDisplay:10.37,2013-03-19 03:23:00,
2013-03-18 20:29:00,55.2,46.0,30.10,NNW,340,1.2,1.2,71,0.00,CLR,,0.00,WeatherDisplay:10.37,2013-03-19 03:29:00,
2013-03-18 20:34:00,54.9,45.7,30.09,South,183,3.5,3.5,71,0.00,CLR,,0.00,WeatherDisplay:10.37,2013-03-19 03:34:00,
2013-03-18 20:39:00,54.8,45.6,30.10,WSW,239,3.5,3.5,71,0.00,CLR,,0.00,WeatherDisplay:10.37,2013-03-19 03:39:00,
2013-03-18 20:44:00,54.6,45.4,30.10,WSW,252,2.3,2.3,71,0.00,CLR,,0.00,WeatherDisplay:10.37,2013-03-19 03:44:00,
2013-03-18 20:49:00,54.5,45.3,30.10,NNE,20,2.3,2.3,71,0.00,CLR,,0.00,WeatherDisplay:10.37,2013-03-19 03:49:00,
2013-03-18 20:54:00,54.4,45.2,30.10,NNE,20,0.0,0.0,71,0.00,CLR,,0.00,WeatherDisplay:10.37,2013-03-19 03:54:00,
2013-03-18 20:59:00,54.4,45.6,30.10,ENE,60,1.2,1.2,72,0.00,CLR,,0.00,WeatherDisplay:10.37,2013-03-19 03:59:00,
2013-03-18 21:00:00,54.4,45.6,30.10,ENE,60,1.2,0.0,72,0.00,CLR,,0.00,WeatherDisplay:10.37,2013-03-19 04:00:00,
2013-03-18 21:02:00,54.4,45.6,30.10,ENE,60,0.0,0.0,72,0.00,CLR,,0.00,WeatherDisplay:10.37,2013-03-19 04:02:00,
2013-03-18 21:07:00,54.2,45.4,30.11,ENE,58,0.0,0.0,72,0.00,CLR,,0.00,WeatherDisplay:10.37,2013-03-19 04:07:00,
2013-03-18 21:12:00,54.1,45.3,30.11,ENE,60,0.0,0.0,72,0.00,CLR,,0.00,WeatherDisplay:10.37,2013-03-19 04:12:00,
2013-03-18 21:17:00,54.0,45.5,30.11,ENE,60,0.0,0.0,73,0.00,CLR,,0.00,WeatherDisplay:10.37,2013-03-19 04:17:00,
2013-03-18 21:22:00,53.9,45.8,30.11,ENE,60,0.0,0.0,74,0.00,CLR,,0.00,WeatherDisplay:10.37,2013-03-19 04:22:00,
2013-03-18 21:27:00,53.9,45.8,30.11,NE,41,2.3,2.3,74,0.00,CLR,,0.00,WeatherDisplay:10.37,2013-03-19 04:27:00,
2013-03-18 21:32:00,53.9,46.2,30.12,ENE,75,1.2,1.2,75,0.00,CLR,,0.00,WeatherDisplay:10.37,2013-03-19 04:32:00,
2013-03-18 21:37:00,53.9,46.2,30.12,SW,226,1.2,1.2,75,0.00,CLR,,0.00,WeatherDisplay:10.37,2013-03-19 04:37:00,
2013-03-18 21:42:00,54.0,46.3,30.12,WNW,295,1.2,0.0,75,0.00,CLR,,0.00,WeatherDisplay:10.37,2013-03-19 04:42:00,
2013-03-18 21:47:00,54.0,46.3,30.12,West,271,1.2,1.2,75,0.00,CLR,,0.00,WeatherDisplay:10.37,2013-03-19 04:47:00,
2013-03-18 21:52:00,53.9,46.2,30.12,West,279,1.2,1.2,75,0.00,CLR,,0.00,WeatherDisplay:10.37,2013-03-19 04:52:00,
2013-03-18 21:57:00,53.9,46.2,30.12,West,276,1.2,1.2,75,0.00,CLR,,0.00,WeatherDisplay:10.37,2013-03-19 04:57:00,
2013-03-18 22:02:00,53.9,46.2,30.12,WSW,248,0.0,0.0,75,0.00,CLR,,0.00,WeatherDisplay:10.37,2013-03-19 05:02:00,
2013-03-18 22:07:00,53.9,45.8,30.13,NNW,348,4.6,4.6,74,0.00,CLR,,0.00,WeatherDisplay:10.37,2013-03-19 05:07:00,
2013-03-18 22:12:00,54.0,45.9,30.13,WNW,290,4.0,4.0,74,0.00,CLR,,0.00,WeatherDisplay:10.37,2013-03-19 05:12:00,
2013-03-18 22:17:00,54.1,46.0,30.12,SW,217,1.2,1.2,74,0.00,CLR,,0.00,WeatherDisplay:10.37,2013-03-19 05:17:00,
2013-03-18 22:22:00,54.1,46.0,30.13,SW,215,0.0,0.0,74,0.00,CLR,,0.00,WeatherDisplay:10.37,2013-03-19 05:22:00,
2013-03-18 22:27:00,54.0,45.9,30.13,SW,215,1.0,1.0,74,0.00,CLR,,0.00,WeatherDisplay:10.37,2013-03-19 05:27:00,
2013-03-18 22:32:00,53.9,45.8,30.13,SW,215,0.0,0.0,74,0.00,CLR,,0.00,WeatherDisplay:10.37,2013-03-19 05:32:00,
2013-03-18 22:37:00,53.8,45.7,30.13,SW,217,0.0,0.0,74,0.00,CLR,,0.00,WeatherDisplay:10.37,2013-03-19 05:37:00,
2013-03-18 22:42:00,53.6,45.9,30.13,SW,217,0.0,0.0,75,0.00,CLR,,0.00,WeatherDisplay:10.37,2013-03-19 05:42:00,
2013-03-18 22:47:00,53.6,45.9,30.13,SW,215,0.0,0.0,75,0.00,CLR,,0.00,WeatherDisplay:10.37,2013-03-19 05:47:00,
2013-03-18 22:52:00,53.4,45.7,30.14,SW,217,0.0,0.0,75,0.00,CLR,,0.00,WeatherDisplay:10.37,2013-03-19 05:52:00,
2013-03-18 22:57:00,53.4,45.7,30.14,SW,217,0.0,0.0,75,0.00,CLR,,0.00,WeatherDisplay:10.37,2013-03-19 05:57:00,
2013-03-18 23:02:00,53.3,45.6,30.14,SW,217,0.0,0.0,75,0.00,CLR,,0.00,WeatherDisplay:10.37,2013-03-19 06:02:00,
2013-03-18 23:07:00,53.2,45.5,30.14,SW,217,0.0,0.0,75,0.00,CLR,,0.00,WeatherDisplay:10.37,2013-03-19 06:07:00,
2013-03-18 23:12:00,53.2,45.5,30.14,SE,132,0.0,0.0,75,0.00,CLR,,0.00,WeatherDisplay:10.37,2013-03-19 06:12:00,
2013-03-18 23:17:00,53.2,45.5,30.14,SE,132,0.0,0.0,75,0.00,CLR,,0.00,WeatherDisplay:10.37,2013-03-19 06:17:00,
2013-03-18 23:22:00,53.0,45.3,30.14,SE,132,0.0,0.0,75,0.00,CLR,,0.00,WeatherDisplay:10.37,2013-03-19 06:22:00,
2013-03-18 23:27:00,53.0,45.3,30.14,SE,132,0.0,0.0,75,0.00,CLR,,0.00,WeatherDisplay:10.37,2013-03-19 06:27:00,
2013-03-18 23:32:00,53.0,45.3,30.13,SE,132,0.0,0.0,75,0.00,CLR,,0.00,WeatherDisplay:10.37,2013-03-19 06:32:00,
2013-03-18 23:37:00,52.9,45.2,30.13,SE,132,0.0,0.0,75,0.00,CLR,,0.00,WeatherDisplay:10.37,2013-03-19 06:37:00,
2013-03-18 23:42:00,52.7,45.0,30.12,SE,132,0.0,0.0,75,0.00,CLR,,0.00,WeatherDisplay:10.37,2013-03-19 06:42:00,
2013-03-18 23:47:00,52.4,45.1,30.13,SE,132,0.0,0.0,76,0.00,CLR,,0.00,WeatherDisplay:10.37,2013-03-19 06:47:00,
2013-03-18 23:52:00,52.1,45.1,30.12,SE,132,0.0,0.0,77,0.00,CLR,,0.00,WeatherDisplay:10.37,2013-03-19 06:52:00,
2013-03-18 23:57:00,51.7,44.7,30.12,SE,132,0.0,0.0,77,0.00,CLR,,0.00,WeatherDisplay:10.37,2013-03-19 06:57:00,